Regional Weather Roundup
Issued by NWS

Home | Current Version | Previous Version | Graphics & Text | Print | Product List | Glossary On
Versions: 1 2 3 4 5 6 7 8 9 10 11 12 13 14 15 16 17 18 19 20 21 22 23 24 25 26 27 28 29 30 31 32 33 34 35 36 37 38 39 40 41 42 43 44 45 46 47 48 49 50
000
ASUS43 KLOT 221006
RWRIL

ILLINOIS REGIONAL WEATHER ROUNDUP
NATIONAL WEATHER SERVICE CHICAGO/ROMEOVILLE IL
500 AM CDT FRI AUG 22 2014

NOTE: "FAIR" INDICATES FEW OR NO CLOUDS BELOW 12,000 FEET WITH NO
SIGNIFICANT WEATHER AND/OR OBSTRUCTIONS TO VISIBILITY.

* THESE STATIONS ARE NOT UNDER NWS QUALITY CONTROL. THEY ALSO MAY NOT
  REPORT WEATHER SUCH AS PRECIPITATION OR FOG.

ILZ001-002-007-009-015-016-024-221100-
NORTHWEST ILLINOIS

CITY           SKY/WX    TMP DP  RH WIND       PRES   REMARKS
MOLINE         CLOUDY    76  72  87 W3        29.88R
STERLING*      PTCLDY    72  70  94 S3        29.89F
SAVANNA*       CLOUDY    72  70  93 E3        29.88F FOG
$$

ILZ003-004-008-010-011-017-018-221100-
NORTH CENTRAL ILLINOIS

CITY           SKY/WX    TMP DP  RH WIND       PRES   REMARKS
ROCKFORD       PTCLDY    73  71  93 E5        29.91F FOG
FREEPORT*      FOG       73  72  96 E3        29.92F VSB 1/4
ROCHELLE*      PTCLDY    70  68  95 E5        29.91S
DE KALB*       CLOUDY    71  70  96 SE5       29.92F
PERU*          CLOUDY    74  73  96 SW5       29.91R
$$

ILZ005-006-012>014-019>023-221100-
NORTHEAST ILLINOIS

CITY           SKY/WX    TMP DP  RH WIND       PRES   REMARKS
CHICAGO-OHARE  MOCLDY    73  69  87 SW7       29.91R
CHICAGO-MIDWAY LGT RAIN  74  72  93 SW10      29.92R
AURORA         CLOUDY    74  70  87 SE7       29.92S
LANSING*       CLOUDY    71  71  98 SW7       29.93S
JOLIET*        CLOUDY    72  70  94 SE3       29.93F
WAUKEGAN       FOG       70  69  97 CALM      29.90S VSB 1/4
DUPAGE AIRPORT CLOUDY    74  72  93 VRB3      29.91F
KANKAKEE*      TSTM      73  71  96 CALM      29.95S
WHEELING       MOCLDY    74  70  87 CALM      29.91S
MORRIS*        CLOUDY    73  73 100 E5        29.92F
ROMEOVILLE*    LGT RAIN  72  72 100 SE6       29.94R
NORTHERLY ISL    N/A     73  70  90 S7          N/A
$$

LMZ740>746-221100-
SOUTHERN LAKE MICHIGAN

STATION/POSITION SKY/WX   TEMP    WIND        PRES    VSBY  WAVE
                          AIR SEA DIR/SP/G                  HT/PER
                          (F)     (DEG/KT/KT) (MB)    (MI)  (FT/S)
SOUTHERN BUOY              69 69  170/  8/ 10 1013.1R         0
WAUKEGAN HARBOR            71      30/  3/  5   N/A
HARRISON CRIB              72     190/ 14/ 16   N/A
BURNHAM HARBOR             73     210/  5/  7   N/A
CALUMET HARBOR             71     200/  7/  9 1011.9R
MICHIGAN CITY              72     140/  5/  7   N/A
MICHIGAN CITY 6N           72 70  230/  2/  6   N/A           1/ 2
ST. JOSEPH                 71 71  170/  4/  4   N/A           1
$$

ILZ025>027-034>036-040-047-049-050-058-095>099-221100-
WEST-CENTRAL ILLINOIS

CITY           SKY/WX    TMP DP  RH WIND       PRES   REMARKS
QUINCY         CLEAR     78  71  79 SW8       29.91R HX  80
GALESBURG*     TSTM      75  73  96 S6        29.91F
MACOMB*        MOCLDY    77  73  89 N6        29.95R
JACKSONVILLE*  CLEAR     78  72  82 SW8       29.93S HX  81
PITTSFIELD*    CLEAR     79  70  74 SW6       29.93S HX  81
$$

ILZ028>032-037-038-041>044-048-051>054-059>061-221100-
CENTRAL ILLINOIS

CITY           SKY/WX    TMP DP  RH WIND       PRES   REMARKS
DECATUR        PTCLDY    78  73  84 SW13      29.92S HX  81
PEORIA         HVY RAIN  77  73  87 N14G23    29.96R FOG
LACON*         TSTM      74  72  92 W10G16    29.95R
LINCOLN*       MOCLDY    79  73  81 SW3       29.89R HX  83
SPRINGFIELD    CLEAR     79  72  79 SW8       29.92R HX  82
TAYLORVILLE    CLEAR     77  72  83 SW8       29.94R
$$

ILZ033-039-045-046-055>057-062-063-221100-
EAST-CENTRAL ILLINOIS

CITY           SKY/WX    TMP DP  RH WIND       PRES   REMARKS
CHAMPAIGN      CLOUDY    76  74  93 SW8       29.92S
DANVILLE*      HVY RAIN  75  74  95 SW8       29.89S
RANTOUL*       CLOUDY    79  73  82 NW13G18   29.95R HX  83
MATTOON        MOCLDY    77  72  84 SW10      29.93S
PARIS*         CLOUDY    76  74  93 SW7       29.93S
$$

ILZ079-100>102-221100-
SOUTHWEST ILLINOIS

CITY           SKY/WX    TMP DP  RH WIND       PRES   REMARKS
ALTON          CLEAR     77  73  87 SW6       29.96R
BELLEVILLE     CLEAR     76  72  87 VRB1      29.95R
CAHOKIA*       CLEAR     79  70  74 VRB5      29.95R HX  82
SPARTA*        CLEAR     75  71  87 CALM      29.98S
$$

ILZ064>066-069>071-074>076-080>082-084>086-088>090-092>094-221100-
SOUTH-CENTRAL ILLINOIS

CITY           SKY/WX    TMP DP  RH WIND       PRES   REMARKS
CARBONDALE     CLEAR     76  71  85 SW5       29.98R
CAIRO*         CLEAR     78  73  84 SW5       30.00R HX  80
MARION         CLEAR     77  73  88 SW3       29.99R
MT. VERNON     CLEAR     73  68  83 CALM      29.98R
CENTRALIA*     CLEAR     74  70  86 SW6       29.97R
SALEM*         CLEAR     79  74  84 SW5       29.97R HX  82
METROPOLIS*    CLEAR     76  71  83 SW6       30.00R
$$

ILZ067-068-072-073-078-083-087-091-221100-
SOUTHEAST ILLINOIS

CITY           SKY/WX    TMP DP  RH WIND       PRES   REMARKS
LAWRENCEVILLE  CLEAR     76  73  91 SW6       29.96R
FLORA*         CLEAR     76  73  90 SW6       29.97R
FAIRFIELD*     CLEAR     75  73  94 SW5       29.97R
HARRISBURG*    CLEAR     76  74  93 SW5       29.99R
ROBINSON*      PTCLDY    78  74  89 SW10      29.95S HX  80
CARMI*         CLEAR     75  73  94 SW3       29.97R
$$

ABBREVIATIONS USED IN REMARKS
   TC - TEMPERATURE IN CELSIUS
  WCI - WIND CHILL INDEX
   HX - HEAT INDEX
  VSB - VISIBILITY
$$



USA.gov is the U.S. government's official web portal to all federal, state and local government web resources and services.